| time (UTC) | temp F | wind direction | speed knots | gust knots | rain 1hr in | rain 24hr in | rain mn in | humidity % | barometer mb |
| 20260510190012 | 78 | 206 | 3.5 | 7.8 | 0.00 | 0.00 | 0.00 | 54 | 1015.1 |
| 20260510184504 | 77 | 130 | 0.9 | 7.0 | 0.00 | 0.00 | 0.00 | 56 | 1015.1 |
| 20260510183002 | 76 | 216 | 2.6 | 5.2 | 0.00 | 0.00 | 0.00 | 59 | 1015.2 |
| 20260510181602 | 76 | 58 | 0.9 | 6.1 | 0.00 | 0.00 | 0.00 | 57 | 1015.4 |
| 20260510180117 | 76 | 223 | 0.9 | 5.2 | 0.00 | 0.00 | 0.00 | 57 | 1015.5 |
| 20260510174557 | 78 | 166 | 2.6 | 7.8 | 0.00 | 0.00 | 0.00 | 57 | 1015.6 |
| 20260510173054 | 78 | 199 | 0.9 | 5.2 | 0.00 | 0.00 | 0.00 | 57 | 1015.6 |
| 20260510171558 | 77 | 6 | 0.9 | 7.0 | 0.00 | 0.00 | 0.00 | 58 | 1015.6 |
| 20260510170051 | 77 | 193 | 1.7 | 7.0 | 0.00 | 0.00 | 0.00 | 61 | 1015.6 |
| 20260510164555 | 77 | 205 | 2.6 | 5.2 | 0.00 | 0.00 | 0.00 | 61 | 1016.0 |
| 20260510163106 | 76 | 124 | 2.6 | 6.1 | 0.00 | 0.00 | 0.00 | 64 | 1016.0 |
| 20260510161557 | 78 | 70 | 0.9 | 5.2 | 0.00 | 0.00 | 0.00 | 62 | 1016.1 |
| 20260510160053 | 78 | 257 | 0.9 | 3.5 | 0.00 | 0.00 | 0.00 | 51 | 1015.9 |
| 20260510154539 | 78 | 32 | 0.9 | 4.3 | 0.00 | 0.00 | 0.00 | 60 | 1016.1 |
| 20260510153041 | 77 | 92 | 0.0 | 5.2 | 0.00 | 0.00 | 0.00 | 55 | 1016.0 |
| 20260510151532 | 76 | 199 | 0.9 | 3.5 | 0.00 | 0.00 | 0.00 | 57 | 1016.1 |
| 20260510150027 | 76 | 356 | 0.0 | 2.6 | 0.00 | 0.00 | 0.00 | 58 | 1015.8 |
| 20260510144536 | 74 | 210 | 2.6 | 3.5 | 0.00 | 0.00 | 0.00 | 58 | 1015.7 |
| 20260510143025 | 74 | 84 | 0.0 | 1.7 | 0.00 | 0.00 | 0.00 | 61 | 1015.5 |
| 20260510141522 | 73 | 216 | 0.0 | 0.0 | 0.00 | 0.00 | 0.00 | 64 | 1015.5 |
| 20260510140112 | 72 | 214 | 0.0 | 0.0 | 0.00 | 0.00 | 0.00 | 67 | 1015.6 |
| 20260510134507 | 70 | 213 | 0.0 | 0.9 | 0.00 | 0.00 | 0.00 | 69 | 1015.5 |
| 20260510133004 | 70 | 238 | 0.0 | 1.7 | 0.00 | 0.00 | 0.00 | 72 | 1015.6 |
| 20260510131558 | 68 | 82 | 0.0 | 0.0 | 0.00 | 0.00 | 0.00 | 75 | 1015.7 |
| 20260510130059 | 66 | 82 | 0.0 | 0.9 | 0.00 | 0.00 | 0.00 | 79 | 1015.8 |
| 20260510124551 | 63 | 51 | 0.0 | 2.6 | 0.00 | 0.00 | 0.00 | 82 | 1016.0 |
| 20260510123043 | 62 | 20 | 0.0 | 2.6 | 0.00 | 0.00 | 0.00 | 85 | 1015.8 |
| 20260510121538 | 61 | 355 | 0.0 | 2.6 | 0.00 | 0.00 | 0.00 | 86 | 1015.7 |
| 20260510120034 | 59 | 2 | 0.0 | 0.0 | 0.00 | 0.00 | 0.00 | 91 | 1015.7 |
| 20260510114529 | 57 | 2 | 0.0 | 0.9 | 0.00 | 0.00 | 0.00 | 95 | 1015.6 |
| 20260510113025 | 55 | 330 | 0.0 | 0.9 | 0.00 | 0.00 | 0.00 | 95 | 1015.5 |
| 20260510111522 | 53 | 330 | 0.0 | 0.9 | 0.00 | 0.00 | 0.00 | 95 | 1015.0 |
| 20260510110024 | 52 | 330 | 0.0 | 0.9 | 0.00 | 0.00 | 0.00 | 94 | 1014.7 |
| 20260510104514 | 0 | 0.0 | 0.0 | 0.00 | 0.00 | 0.00 | 1014.5 | ||
| 20260510103010 | 0 | 0.0 | 0.0 | 0.00 | 0.00 | 0.00 | 1014.3 | ||
| 20260510101504 | 0 | 0.0 | 0.0 | 0.00 | 0.00 | 0.00 | 1014.2 | ||
| 20260510100059 | 50 | 340 | 0.0 | 0.0 | 0.00 | 0.00 | 0.00 | 95 | 1014.2 |
| 20260510094558 | 50 | 333 | 0.0 | 0.0 | 0.00 | 0.00 | 0.00 | 95 | 1014.2 |
| 20260510093107 | 51 | 333 | 0.0 | 0.0 | 0.00 | 0.00 | 0.00 | 94 | 1014.2 |
| 20260510091556 | 51 | 333 | 0.0 | 0.0 | 0.00 | 0.00 | 0.00 | 95 | 1014.0 |
| 20260510090053 | 51 | 333 | 0.0 | 0.0 | 0.00 | 0.00 | 0.00 | 95 | 1013.9 |
| 20260510084552 | 51 | 333 | 0.0 | 0.0 | 0.00 | 0.00 | 0.00 | 94 | 1013.6 |
| 20260510083050 | 51 | 333 | 0.0 | 0.0 | 0.00 | 0.00 | 0.00 | 94 | 1013.5 |
| 20260510081605 | 51 | 333 | 0.0 | 0.0 | 0.00 | 0.00 | 0.00 | 94 | 1013.3 |
| 20260510080037 | 51 | 351 | 0.0 | 0.0 | 0.00 | 0.00 | 0.00 | 94 | 1013.0 |
| 20260510074635 | 51 | 351 | 0.0 | 0.0 | 0.00 | 0.00 | 0.00 | 94 | 1013.0 |
| 20260510073039 | 52 | 351 | 0.0 | 0.0 | 0.00 | 0.00 | 0.00 | 93 | 1012.8 |
| 20260510071529 | 52 | 351 | 0.0 | 0.0 | 0.00 | 0.00 | 0.00 | 94 | 1012.8 |
| 20260510070026 | 53 | 351 | 0.0 | 0.0 | 0.00 | 0.00 | 0.00 | 94 | 1012.7 |
| 20260510064533 | 53 | 351 | 0.0 | 0.0 | 0.00 | 0.00 | 0.00 | 93 | 1012.8 |
| 20260510063032 | 53 | 351 | 0.0 | 0.0 | 0.00 | 0.00 | 0.00 | 93 | 1012.8 |
| 20260510061521 | 54 | 351 | 0.0 | 0.0 | 0.00 | 0.00 | 0.00 | 93 | 1012.7 |
| 20260510060027 | 54 | 103 | 0.0 | 0.0 | 0.00 | 0.00 | 0.00 | 93 | 1012.5 |
| 20260510054516 | 54 | 103 | 0.0 | 0.0 | 0.00 | 0.00 | 0.00 | 93 | 1012.6 |
| 20260510053010 | 55 | 103 | 0.0 | 0.0 | 0.00 | 0.00 | 0.00 | 93 | 1012.8 |
| 20260510051506 | 55 | 103 | 0.0 | 0.0 | 0.00 | 0.00 | 0.00 | 93 | 1012.8 |
| 20260510050003 | 55 | 103 | 0.0 | 0.0 | 0.00 | 0.00 | 0.00 | 92 | 1012.8 |
| 20260510044617 | 56 | 103 | 0.0 | 0.0 | 0.00 | 0.00 | 0.00 | 92 | 1013.0 |
| 20260510043100 | 56 | 103 | 0.0 | 0.0 | 0.00 | 0.00 | 0.00 | 92 | 1012.9 |
| 20260510041601 | 57 | 103 | 0.0 | 0.0 | 0.00 | 0.00 | 0.00 | 91 | 1012.8 |
| 20260510040049 | 57 | 103 | 0.0 | 0.0 | 0.00 | 0.00 | 0.00 | 91 | 1012.7 |
| 20260510034547 | 58 | 103 | 0.0 | 0.0 | 0.00 | 0.00 | 0.00 | 90 | 1012.6 |
| 20260510033057 | 58 | 103 | 0.0 | 0.0 | 0.00 | 0.00 | 0.00 | 90 | 1012.5 |
| 20260510031542 | 59 | 103 | 0.0 | 0.0 | 0.00 | 0.00 | 0.00 | 89 | 1012.5 |
| 20260510030046 | 60 | 103 | 0.0 | 0.0 | 0.00 | 0.00 | 0.00 | 88 | 1012.3 |
| 20260510024538 | 60 | 103 | 0.0 | 0.0 | 0.00 | 0.00 | 0.00 | 86 | 1012.3 |
| 20260510023036 | 61 | 103 | 0.0 | 0.0 | 0.00 | 0.00 | 0.00 | 86 | 1012.3 |
| 20260510021633 | 61 | 103 | 0.0 | 0.0 | 0.00 | 0.00 | 0.00 | 85 | 1012.3 |
| 20260510020032 | 61 | 103 | 0.0 | 0.0 | 0.00 | 0.00 | 0.00 | 83 | 1012.2 |
| 20260510014534 | 62 | 103 | 0.0 | 0.0 | 0.00 | 0.00 | 0.00 | 83 | 1011.9 |
| 20260510013026 | 63 | 115 | 0.0 | 0.0 | 0.00 | 0.00 | 0.00 | 82 | 1011.8 |
| 20260510011525 | 63 | 115 | 0.0 | 0.0 | 0.00 | 0.00 | 0.00 | 81 | 1011.7 |
| 20260510010026 | 63 | 93 | 0.0 | 0.0 | 0.00 | 0.00 | 0.00 | 80 | 1011.7 |
| 20260510004619 | 64 | 96 | 0.0 | 0.0 | 0.00 | 0.00 | 0.00 | 78 | 1011.6 |
| 20260510003017 | 65 | 96 | 0.0 | 1.7 | 0.00 | 0.00 | 0.00 | 75 | 1011.4 |
| 20260510001515 | 65 | 107 | 0.0 | 0.9 | 0.00 | 0.00 | 0.00 | 74 | 1011.3 |
| 20260510000018 | 66 | 74 | 0.0 | 2.6 | 0.00 | 0.00 | 0.00 | 73 | 1011.1 |
| 20260509234514 | 66 | 185 | 1.7 | 3.5 | 0.00 | 0.00 | 0.00 | 72 | 1010.9 |
| 20260509233011 | 67 | 164 | 1.7 | 3.5 | 0.00 | 0.00 | 0.00 | 71 | 1011.0 |
| 20260509231508 | 68 | 219 | 1.7 | 5.2 | 0.00 | 0.00 | 0.00 | 69 | 1010.9 |
| 20260509230009 | 69 | 204 | 0.9 | 3.5 | 0.00 | 0.00 | 0.00 | 68 | 1010.9 |
| 20260509224503 | 69 | 173 | 1.7 | 5.2 | 0.00 | 0.00 | 0.00 | 67 | 1010.7 |
| 20260509223007 | 69 | 187 | 1.7 | 7.0 | 0.00 | 0.00 | 0.00 | 68 | 1010.9 |
| 20260509221559 | 70 | 217 | 1.7 | 4.3 | 0.00 | 0.00 | 0.00 | 68 | 1010.9 |
| 20260509214556 | 71 | 94 | 0.0 | 3.5 | 0.00 | 0.00 | 0.00 | 67 | 1010.9 |
| 20260509213055 | 71 | 139 | 0.0 | 6.1 | 0.00 | 0.00 | 0.00 | 66 | 1010.9 |
| 20260509211549 | 71 | 111 | 0.0 | 2.6 | 0.00 | 0.00 | 0.00 | 66 | 1010.7 |
| 20260509210047 | 70 | 100 | 0.9 | 6.1 | 0.00 | 0.00 | 0.00 | 67 | 1010.6 |
| 20260509204545 | 70 | 139 | 1.7 | 7.0 | 0.00 | 0.00 | 0.00 | 68 | 1010.6 |
| 20260509203043 | 70 | 206 | 1.7 | 4.3 | 0.00 | 0.00 | 0.00 | 70 | 1010.8 |
| 20260509201549 | 69 | 352 | 0.0 | 4.3 | 0.00 | 0.00 | 0.00 | 71 | 1011.0 |
| 20260509200043 | 68 | 45 | 1.7 | 5.2 | 0.00 | 0.00 | 0.00 | 73 | 1011.2 |
| 20260509194534 | 69 | 2 | 1.7 | 4.3 | 0.00 | 0.00 | 0.00 | 70 | 1011.3 |
| 20260509193037 | 69 | 66 | 0.0 | 4.3 | 0.00 | 0.00 | 0.00 | 69 | 1011.3 |
| 20260509191529 | 68 | 52 | 0.0 | 0.0 | 0.00 | 0.00 | 0.00 | 71 | 1011.3 |